STARLINK-34652, 64772

Orbit data source: Space-Track

STARLINK-34652, 64772 is a payload satellite owned by SpaceX/Seattle (US) in LEO that was launched on Tue, 08 Jul 2025 UTC via an FALCON 9 launch vehicle from the Air Force Eastern Test Range (AFETR). Payload-class satellites include a variety of spacecraft equipped with specific instruments for various scientific and technological missions. These include communications satellites like Starlink; space stations such as the ISS; scientific satellites like the Hubble; Earth observation satellites from companies like Planet Labs, Umbra, and HawkEye 360; GPS; miniature CubeSats for education and research; and military/defense satellites.

Loading next visibility...
Identifier
64772, 2025-147T
Orbit
LEO
Country
Flag of USUS
Related business
Manufacturer
SpaceX/Seattle
Mission
Operational spacecraft
Bus & Motor
STARLINK V2MO, Unknown motor
Mass
575 kg wet, ~530 kg dry
Launch date (UTC)
2025-07-08 (2 months ago)
Launch vehicle
FALCON 9
Launch site
Air Force Eastern Test Range (AFETR)
Object type
Payload
Rocket body
Debris
Shape & HBR
Unknown
Radar Cross Section
Large (>1 m²)

Expand to show TLE details & history
Last TLE update: 7 hours ago

TLE from 7 hours ago
0 STARLINK-34652
1 64772U 25147T   25243.49560053  .00064981  00000-0  16198-2 0  9998
2 64772  53.1603  47.5032 0000792  94.9386 265.1710 15.39637936  9614
Epoch: 2025-08-31T11:53Z
TLE epoch observation values (Epoch: 2025-08-31T11:53:39.885Z)
Latitude
0.00002°
Longitude
-110.82769°
Altitude
448.128 km
Speed
7.645 km/s
True Right ascension
03h 10m 00s
True Declination
0° 00' 00"
Sunlit
Object was in full shadow at epoch
Visualization orbit readout
Latitude
Unknown
Longitude
Unknown
Altitude
Unknown
Speed
Unknown
Apparent Right ascension
Unknown
Apparent Declination
Unknown
Sunlit
N/A
Visualization observer readout
Local Sidereal Time
11:03:38
Azimuth
Unknown
Elevation
Unknown
Doppler factor
Unknown
Orbital elements
Apogee altitude
447.977 km
Perigee altitude
446.896 km
Semi-major axis
6,825.574 km
Eccentricity
0.00008
Inclination
53.1603°
RAAN
47.5032°
Arg. of periapsis
94.9386°
True anomaly
265.16196°
Mean anomaly
265.171°
Eccentric anomaly
265.16648°
Mean motion
3.84888 °/min
Orbital period
93.53 mins
BSTAR
0.0016198
Loading maneuver chart data...
Computing Atmospheric mass density...
Loading historical data...
Loading historical data...
Loading historical data...
Loading historical data...
Loading historical data...
Loading historical data...
Loading historical data...

Documentation

Showing up to 5 results
|